Location: Chequamegon National Forest
(46.1070°N, 90.8420°W)
Time: 03:49:01
(UTC-06:00)

Daily predictions for brighter satellites

Satellite Brightness Start Highest point End
(mag) Time Altitude Azimuth Time Altitude Azimuth Time Altitude Azimuth
CENTAUR R/B 3.9 03:41:19 34° NE 03:41:19 34° NE 03:45:06 10° NE
Lacrosse 5 4.4 03:44:48 16° ESE 03:44:48 16° ESE 03:47:27 10° E
CZ-4C R/B 4.5 04:12:18 17° N 04:12:18 17° N 04:15:49 10° NE
Cosmos 2369 Rocket 3.6 04:14:29 31° NNE 04:15:38 33° NE 04:20:45 10° ESE
Cosmos 2184 Rocket 4.3 04:23:32 10° S 04:29:36 64° E 04:35:45 10° NNE
Feng Yun 1-1 Rocket 4.2 04:39:06 10° NNE 04:44:45 78° ESE 04:50:12 10° S
Meteor 1-20 Rocket 4.1 04:45:40 86° ENE 04:45:40 86° ENE 04:51:08 10° NNE
Cosmos 2333 Rocket 4.3 04:52:28 13° N 04:52:28 13° N 04:53:20 10° N
DNEPR-1 R/B 4.4 04:48:28 61° SW 04:49:46 85° NW 04:55:40 10° NE
Cosmos 1633 4.2 04:48:20 10° SSE 04:51:38 33° E 04:54:56 10° NNE
Cosmos 1943 Rocket 3.7 04:50:42 17° N 04:54:00 31° NE 04:58:51 10° ESE
Abrixas rocket 4.4 04:55:52 26° ESE 04:55:52 26° ESE 04:57:54 10° E
Cosmos 2056 Rocket 3.4 04:59:37 70° SSW 04:59:37 70° SSW 05:04:16 10° SSE
CZ-3 R/B 4.3 04:53:39 10° SW 05:00:21 15° S 05:04:13 10° SSE
Lacrosse 5 rocket 3.5 05:02:35 18° NNE 05:02:35 18° NNE 05:04:40 10° NE
Okean 1 Rocket 3.7 04:58:44 10° S 05:03:01 55° E 05:07:18 10° NNE
Lacrosse 4 Rocket 3.5 05:02:48 17° NNE 05:04:22 20° NE 05:07:29 10° E
Cosmos 1610 Rocket 4.4 04:59:27 10° S 05:05:38 85° E 05:11:57 10° N
SL-16 R/B 3.3 05:09:01 29° NNW 05:09:01 29° NNW 05:12:24 10° NNE
ADEOS II 3.9 05:04:36 10° N 05:06:01 18° N 05:06:01 18° N
COSMO-SKYMED 1 2.6 05:06:01 10° SSE 05:10:20 79° ENE 05:11:25 50° N
Ariane Rocket 4.1 05:07:04 10° NNE 05:11:55 44° E 05:16:44 10° S
Cosmos 1624 Rocket 4.1 05:12:49 53° WSW 05:12:49 53° WSW 05:17:39 10° S
USA 215 3.7 05:06:18 10° ENE 05:12:44 59° SE 05:19:08 10° SW
Cosmos 44 Rocket 3.5 05:13:50 22° SSW 05:17:15 79° ESE 05:22:22 10° NE
Cosmos 1602 3.7 05:15:51 10° S 05:19:48 87° ESE 05:23:48 10° N
Meteor 1-19 Rocket 4.2 05:17:31 11° NNW 05:23:14 85° W 05:29:00 10° S
Okean 1-7 Rocket 3.4 05:21:27 33° N 05:23:25 89° WSW 05:27:48 10° S
Cosmos 2263 4.3 05:22:16 23° NNW 05:25:51 75° ENE 05:31:26 10° SSE
Lacrosse 5 1.9 05:24:03 31° SW 05:26:34 84° SE 05:31:42 10° NE
Cosmos 1300 Rocket 3.4 05:22:50 10° SSW 05:27:14 66° W 05:31:38 10° N
Cosmos 192 4.2 05:23:05 10° SSW 05:27:59 76° WNW 05:32:55 10° NNE
Cosmos 1900 4.5 05:26:05 32° NNW 05:28:22 70° NE 05:33:17 10° SE
CENTAUR R/B 3.4 05:28:32 30° NW 05:29:36 32° NNW 05:36:00 10° NNE
Meteor 1-28 Rocket 3.4 05:28:11 10° SSE 05:31:58 72° ENE 05:34:24 21° N
Helios 1B rocket 4.5 05:31:13 10° ESE 05:34:42 27° ENE 05:38:12 10° N
Nadezhda 3 Rocket 3.9 05:29:38 10° NNW 05:35:59 70° W 05:42:18 10° S
Meteor 1-11 Rocket 3.7 05:30:09 10° SSW 05:36:00 83° W 05:41:44 10° N
Cosmos 2237 Rocket 4.2 05:38:00 12° NNW 05:38:00 12° NNW 05:39:09 10° N
Cosmos 1340 3.6 05:36:08 10° N 05:39:48 48° ENE 05:43:29 10° SSE
CSL-04 Rocket 4.1 05:36:57 10° NNE 05:42:31 68° ESE 05:47:58 10° S
Meteor 1-13 Rocket 4.5 05:38:48 14° NNW 05:43:43 50° W 05:49:23 10° SSW
Radarsat Rocket 4.4 05:38:08 10° NNE 05:45:10 76° WNW 05:53:07 10° SSW
Tiangong 2 2.1 05:45:33 32° SSW 05:45:58 34° SSW 05:48:51 10° SE
Cosmos 1452 Rocket 3.5 05:44:46 21° NNW 05:48:21 66° WSW 05:53:35 10° S
Meteor 1-23 Rocket 4.1 05:43:19 10° NNW 05:48:54 84° W 05:54:27 10° S
ATLAS 3B R/B 4.4 05:49:08 12° NNW 05:53:56 21° NNE 05:59:02 10° ENE
Cosmos 962 Rocket 4.4 05:47:45 10° SSW 05:53:56 75° W 06:00:15 10° N
Cosmos 1455 Rocket 4.5 05:50:30 10° SSE 05:54:32 40° E 05:58:36 10° NNE
Meteor 2-13 Rocket 4.4 05:49:40 10° SSW 05:55:44 59° WNW 06:01:50 10° N
Meteor 2-4 Rocket 3.7 05:51:24 10° NNW 05:56:52 63° W 06:02:26 10° S
SKYMED 2 4.2 05:54:38 10° SSW 05:58:33 33° W 06:00:03 26° WNW
Cosmos 2369 Rocket 2.5 05:56:19 21° NW 05:59:49 45° WSW 06:05:12 10° S
CZ-4C R/B 4.3 05:57:29 10° NNW 06:02:39 24° NNE 06:08:25 10° ENE
Cosmos 839 Rocket 4.1 05:57:15 13° NW 06:03:22 85° NE 06:09:31 10° SE
Okean 2 3.3 05:59:37 10° N 06:03:50 81° W 06:07:59 10° S
Cosmos 1603 4.3 06:01:03 14° WSW 06:05:14 34° NW 06:10:22 10° NNE
Cosmos 2341 Rocket 4.0 05:59:08 10° SSW 06:05:21 62° WNW 06:11:33 10° N
ATLAS 5 CENTAUR R/B 4.2 06:02:02 10° NNW 06:05:52 18° NNE 06:09:55 10° ENE
Meteor 1-5 Rocket 4.0 06:03:39 10° S 06:09:00 89° W 06:14:19 10° N
USA 129 1.9 06:07:08 10° S 06:09:11 48° WSW 06:09:11 48° WSW
Cosmos 44 3.4 06:06:23 10° SW 06:11:43 67° NW 06:16:51 10° NNE
SMAP 4.1 06:07:39 10° NNE 06:12:12 50° E 06:16:43 10° S
YAOGAN 3 4.5 06:08:12 10° N 06:12:35 78° WNW 06:16:56 10° SSW
CZ-4 R/B 1.5 06:13:59 10° NNE 06:17:57 76° ESE 06:21:50 10° S
Cosmos 1536 3.4 06:14:33 10° SW 06:18:11 34° WNW 06:21:53 10° N
Cosmos 1025 Rocket 3.6 06:14:50 10° NNW 06:18:50 35° W 06:22:48 10° SSW
PAYLOAD A 4.2 06:16:08 10° NNE 06:21:33 88° WNW 06:26:59 10° SSW
YAOGAN 1 3.1 06:21:10 10° NNE 06:25:30 63° ESE 06:29:47 10° S
Cosmos 1633 4.0 06:24:19 10° WSW 06:26:46 17° WNW 06:29:14 10° NNW
Cosmos 1943 3.5 06:22:38 10° SW 06:28:01 45° NW 06:33:28 10° NNE
Cosmos 1515 3.8 06:26:32 10° N 06:30:24 78° E 06:34:13 10° SSE
Cosmos 1269 Rocket 4.0 06:25:26 10° SSW 06:30:43 81° WNW 06:36:04 10° NNE
Abrixas rocket 2.2 06:28:43 13° W 06:31:37 72° NNW 06:34:59 10° ENE
USA 229 DEB 3.7 06:24:53 10° SW 06:31:47 81° NW 06:38:49 10° NE
USA 229 3.7 06:25:00 10° SW 06:31:54 82° NW 06:38:55 10° NE
SJ-12 3.9 06:28:52 10° N 06:33:03 83° WNW 06:37:12 10° SSW
Cosmos 1602 Rocket 3.9 06:31:42 10° N 06:36:12 71° E 06:40:38 10° SSE
IRS-1A Rocket 4.3 06:30:58 10° N 06:36:37 66° WNW 06:42:22 10° SSW
Cosmos 1943 Rocket 2.5 06:32:41 10° NW 06:37:56 46° WSW 06:43:10 10° S
Meteor 2-19 Rocket 4.4 06:32:03 10° SSW 06:38:06 65° W 06:44:12 10° N
Lacrosse 5 rocket 3.1 06:38:28 10° NW 06:41:59 24° NNE 06:45:38 10° ENE
Cosmos 1544 Rocket 3.8 06:38:55 10° SSW 06:43:08 48° WNW 06:47:25 10° N
Lacrosse 4 Rocket 1.6 06:39:21 10° NW 06:43:24 53° WSW 06:47:21 10° SSE
SL-23 DEB 4.4 06:40:47 12° WNW 06:43:28 36° SW 06:47:04 10° SSE
COSMO-SKYMED 1 4.5 06:45:51 10° WSW 06:47:04 11° W 06:48:17 10° WNW
Ariane Rocket 3.9 06:46:29 10° N 06:50:39 27° WNW 06:54:50 10° WSW
CZ-2C R/B 2.5 06:48:02 10° N 06:53:11 67° WNW 06:58:12 10° SSW
SPOT 3 Rocket 3.5 06:49:24 10° N 06:54:33 74° WNW 06:59:41 10° SSW
USA 215 3.4 06:49:23 10° NE 06:55:44 56° NNW 07:02:04 10° WSW
Cosmos 1331 Rocket 4.1 06:52:40 10° NNW 06:57:52 83° ENE 07:03:02 10° SSE
Cosmos 1743 3.7 06:54:14 10° S 06:58:02 52° E 07:01:52 10° NNE
Cosmos 1048 Rocket 4.1 06:53:15 10° SW 06:58:16 53° WNW 07:03:24 10° NNE
Meteor 1-29 3.4 06:55:54 10° S 06:59:07 42° W 07:02:22 10° NNW
AQUARIUS 4.3 06:55:32 10° N 06:59:56 54° WNW 07:04:18 10° SSW
SL-8 Rocket 4.4 06:54:37 10° SW 07:00:25 40° WNW 07:06:14 10° N
Cosmos 1656 Rocket 3.8 06:54:53 10° NNW 07:00:31 66° WSW 07:06:08 10° SSE
